FENGYUN 1C DEB, 35167

Orbit data source: Space-Track

FENGYUN 1C DEB, 35167 is space debris in SSO originally from a launch on Mon, 10 May 1999 UTC launched from the Taiyaun Space Center, China (TSC). Fengyun 1C debris stems from the Chinese weather satellite Fengyun-1C, which was intentionally destroyed by a Chinese anti-satellite missile in 2007. This event dramatically increased the amount of space debris, with thousands of trackable fragments posing hazards to satellites and human spaceflight. The Fengyun 1C debris cloud has become a focal point in discussions about space sustainability and the need for international regulations to prevent the creation of new debris.

Loading next visibility...
Identifier
35167, 1999-025DMX
Orbit
SSO
Country
Flag of CNCN / PRC
Related business
Manufacturer
Unknown
Mission
Spacecraft
Bus & Motor
Unknown
Mass
Unknown
Launch date (UTC)
1999-05-10 (27 years ago)
Launch vehicle
Unknown
Launch site
Taiyaun Space Center, China (TSC)
Object type
Payload
Rocket body
Debris
Shape & HBR
Unknown shape, 0.1 m
Radar Cross Section
Small (<0.1 m²)

Expand to show TLE details & history
Last TLE update: 4 days ago

TLE from 4 days ago
0 FENGYUN 1C DEB
1 35167U 99025DMX 25348.22419376  .00001795  00000-0  52381-3 0  9997
2 35167  98.4487 341.3842 0229297 199.7066 159.5149 14.31163112700417
Epoch: 2025-12-14T05:22Z
TLE epoch observation values (Epoch: 2025-12-14T05:22:50.340Z)
Latitude
-0.00003°
Longitude
177.53427°
Altitude
945.186 km
Speed
7.299 km/s
True Right ascension
22h 45m 32s
True Declination
0° 00' 00"
Sunlit
Object was in daylight at epoch
Visualization orbit readout
Latitude
Unknown
Longitude
Unknown
Altitude
Unknown
Speed
Unknown
Apparent Right ascension
Unknown
Apparent Declination
Unknown
Sunlit
N/A
Visualization observer readout
Local Sidereal Time
16:10:01
Azimuth
Unknown
Elevation
Unknown
Doppler factor
Unknown
Orbital elements
Apogee altitude
949.223 km
Perigee altitude
620.727 km
Semi-major axis
7,163.112 km
Eccentricity
0.02293
Inclination
98.4487°
RAAN
341.3842°
Arg. of periapsis
199.7066°
True anomaly
160.41034°
Mean anomaly
159.5149°
Eccentric anomaly
159.96499°
Mean motion
3.58006 °/min
Orbital period
100.56 mins
BSTAR
0.00052381
Loading maneuver chart data...
Computing Atmospheric mass density...

Documentation

Showing up to 5 results
|